Barrow, AK

10:04 AM AKST on December 17, 2017 (GMT -0900)
Wiley Post-Will Rogers Memorial

Weather History for PABR - March, 2013

Change the Weather History Date:

Sunday, March 31, 2013

  Actual Average Record
Temperature  
Mean Temperature -6 °F -8 °F  
Max Temperature 1 °F -1 °F 28 °F (1936)
Min Temperature -12 °F -15 °F -34 °F (1943)
Degree Days  
Heating Degree Days 71 73  
Month to date heating degree days 2252 2404  
Since 1 July heating degree days 14211 15264  
Cooling Degree Days 0 0  
Month to date cooling degree days 0 0  
Year to date cooling degree days 0 0  
Moisture  
Dew Point -10 °F    
Average Humidity 0    
Maximum Humidity 0    
Minimum Humidity 0    
Precipitation  
Precipitation T in 0.00 in 0.23 in (1944)
Month to date precipitation 0.50 0.09  
Year to date precipitation 0.63 0.36  
Snow  
Snow 0.10 in 0.10 in 2.50 in (1944)
Month to date snowfall 7.9 2.1  
Since 1 July snowfall 51.9 31.1  
Snow Depth 7.00 in    
Sea Level Pressure  
Sea Level Pressure 30.38 in    
Wind  
Wind Speed 9 mph (ENE)    
Max Wind Speed 13 mph    
Max Gust Speed 16 mph    
Visibility 9 miles    
Events Snow    
T = Trace of Precipitation, MM = Missing Value Source: NWS Daily Summary

Daily Weather History Graph

Daily Weather History Graph

Search for Another Location

Airport or City:

Trip Planner

Search our weather history database for the weather conditions in past years. The results will help you decide how hot, cold, wet, or windy it might be!

Date:

Astronomy

Mar. 31, 2013 Rise Set
Actual Time 7:28 AM AKDT 9:36 PM AKDT
Civil Twilight 6:17 AM AKDT 10:48 PM AKDT
Nautical Twilight 4:27 AM AKDT 12:42 AM AKDT
Astronomical Twilight Sun does not rise Sun does not rise
Moon No Moon Rise No Moon Set
Length of Visible Light 16h 31m
Length of Day
14h 08m
Waning Gibbous, 76% of the Moon is Illuminated
Mar 31
Waning Gibbous
Apr 2
Last Quarter
Apr 10
New
Apr 18
First Quarter
Apr 25
Full

Hourly Weather History & Observations

Time (AKDT) Temp. Windchill Dew Point Humidity Pressure Visibility Wind Dir Wind Speed Gust Speed Precip Events Conditions
12:02 AM -11.2 °F -29.0 °F -18.4 °F 70% 30.31 in 10.0 mi ENE 9.2 mph - N/A   Mostly Cloudy
12:53 AM -11.0 °F -27.6 °F -17.0 °F 75% 30.32 in 9.0 mi ENE 8.1 mph - 0.00 in Snow Light Snow
1:53 AM -7.1 °F -21.4 °F -13.0 °F 75% 30.33 in 9.0 mi East 6.9 mph - 0.00 in Snow Light Snow
2:53 AM -6.0 °F -22.6 °F -11.9 °F 75% 30.33 in 8.0 mi ENE 9.2 mph - 0.00 in Snow Light Snow
3:53 AM -7.1 °F -19.9 °F -11.9 °F 79% 30.34 in 9.0 mi ENE 5.8 mph - 0.00 in Snow Light Snow
4:53 AM -5.1 °F -19.1 °F -11.0 °F 76% 30.34 in 9.0 mi ENE 6.9 mph - 0.00 in Snow Light Snow
5:53 AM -2.9 °F -18.8 °F -9.0 °F 75% 30.35 in 9.0 mi East 9.2 mph - 0.00 in Snow Light Snow
6:53 AM -2.0 °F -18.7 °F -8.0 °F 76% 30.35 in 9.0 mi East 10.4 mph - 0.00 in Snow Light Snow
7:53 AM -0.9 °F -15.3 °F -7.1 °F 75% 30.35 in 7.0 mi East 8.1 mph - 0.00 in Snow Light Snow
8:53 AM -0.9 °F -17.4 °F -6.0 °F 79% 30.36 in 6.0 mi East 10.4 mph - 0.00 in Snow Light Snow
9:53 AM -0.9 °F -16.4 °F -6.0 °F 79% 30.36 in 6.0 mi East 9.2 mph - 0.00 in Snow Light Snow
10:53 AM -2.0 °F -16.6 °F -7.1 °F 79% 30.37 in 7.0 mi East 8.1 mph - 0.00 in   Mostly Cloudy
11:53 AM -0.9 °F -12.7 °F -7.1 °F 75% 30.38 in 7.0 mi East 5.8 mph - N/A   Mostly Cloudy
12:53 PM -0.0 °F -11.6 °F -6.0 °F 76% 30.39 in 10.0 mi East 5.8 mph - N/A   Scattered Clouds
1:53 PM 1.0 °F -11.7 °F -5.1 °F 75% 30.39 in 10.0 mi East 6.9 mph - N/A   Scattered Clouds
2:53 PM 1.0 °F -12.9 °F -6.0 °F 72% 30.40 in 10.0 mi ENE 8.1 mph - N/A   Partly Cloudy
3:53 PM -0.0 °F -14.2 °F -6.0 °F 76% 30.40 in 10.0 mi East 8.1 mph - N/A   Partly Cloudy
4:53 PM -0.0 °F -11.6 °F -7.1 °F 72% 30.41 in 10.0 mi ENE 5.8 mph - N/A   Clear
5:53 PM -0.9 °F -15.3 °F -8.0 °F 72% 30.42 in 10.0 mi ENE 8.1 mph - N/A   Clear
6:53 PM -2.9 °F -18.8 °F -9.9 °F 72% 30.42 in 10.0 mi ENE 9.2 mph - N/A   Clear
7:53 PM -5.1 °F -21.5 °F -11.0 °F 76% 30.43 in 10.0 mi ENE 9.2 mph - N/A   Clear
8:53 PM -6.0 °F -23.6 °F -11.0 °F 79% 30.43 in 10.0 mi ENE 10.4 mph - N/A   Clear
9:53 PM -6.0 °F -23.6 °F -11.0 °F 79% 30.44 in 10.0 mi ENE 10.4 mph - N/A   Clear
10:53 PM -9.0 °F -28.4 °F -14.1 °F 79% 30.45 in 10.0 mi ENE 11.5 mph - N/A   Clear
11:53 PM -11.9 °F -29.9 °F -16.1 °F 82% 30.45 in 10.0 mi ENE 9.2 mph - N/A   Clear